International Virtual Aviation Organisation

Russian Federation and Kazakhstan MCD

 

Карточка аэропорта USCC

Внимание!
Информация на этой странице в стадии наполнения.
Если вы не увидели какой-то информации, или заметили неточность - пожалуйста сообщите нам!
Спасибо!
Команда RU-STAFF
Название аэропортаБаландино
Название аэропорта (англ.)Balandino
Превышение769 ft. (234.4 m.)
Координаты55°18.348', 61°30.198'
Высота перехода1500m (5700ft)
Эшелон переходаFL080
Коды ответчика5560-5563
Зона ОрВДЕкатеринбург РПИ (USSV)
Данные METARUSCC 060730Z 24006MPS 9999 SCT033 M05/M13 Q1007 R27/450345 NOSIG RMK QFE735
Проноз погоды (TAF)USCC 060456Z 0606/0706 24003G08MPS 9999 SCT020 TEMPO 0606/0706 26005G10MPS 6000 -SHSN BKN016CB
NOTAMshow/hide NOTAM
AWOS   TABLE

Информация о ВПП


Диспетчерские позиции

Позывной Наименование органа УВД Частота
USCC_APPЧелябинск-Подход124.7
USCC_TWRЧелябинск-Старт125.2



Спутниковое изображение